Voltar ao catálogo

SCOUT G-1 DEB

AtivoPO
NORAD 19515·DEBRIS·🇺🇸 United States

Lançado Aug 25, 1988 de Vandenberg Space Force Base

Loading…

Próximas Passagens (próximas 24 horas)

TLE

AtualizadoSource: Space-Track

Época: Sep 13, 2026, 17:41 UTC

1 19515U 88074D   26256.73713589  .00000349  00000-0  51211-3 0  9991
2 19515  89.8838 334.7685 0091182 213.6637 269.3994 13.51084222869858

Acompanhe SCOUT G-1 DEB em tempo real com AllMySat

Download on the App Store